DAL1619 KATL-KFLL

Flight info

Callsign DAL1619
Flight time 1h 41m
Altitude 31000
Route SMLTZ3 WALET ZPLEN TEEKY4
Aircraft B739/M-SDE2E3FGHIRWXY/LB1

Departure

Time 2026-05-03 21:21
Airport Hartsfield Jackson Atlanta International Airport (KATL)

Arrival

Time 2026-05-03 23:03
Airport Fort Lauderdale Hollywood International Airport (KFLL)
Time Latitude Longitude Altitude Speed Heading
2026-05-03 20:39 33.64049 -84.43525 1034 ft 0 kts 269°
2026-05-03 20:48 33.64049 -84.43528 1035 ft 1 kts 269°
2026-05-03 20:49 33.64050 -84.43505 1034 ft 4 kts 261°
2026-05-03 20:49 33.64051 -84.43494 1034 ft 0 kts 261°
2026-05-03 20:52 33.64050 -84.43497 1034 ft 1 kts 252°
2026-05-03 20:52 33.64039 -84.43494 1034 ft 3 kts 141°
2026-05-03 20:52 33.64007 -84.43464 1034 ft 8 kts 159°
2026-05-03 20:52 33.63987 -84.43461 1034 ft 0 kts 177°
2026-05-03 20:53 33.63981 -84.43461 1034 ft 4 kts 179°
2026-05-03 20:53 33.63921 -84.43460 1034 ft 11 kts 180°
2026-05-03 20:53 33.63858 -84.43460 1034 ft 4 kts 180°
2026-05-03 20:54 33.63857 -84.43460 1034 ft 0 kts 180°
2026-05-03 20:54 33.63855 -84.43460 1034 ft 1 kts 180°
2026-05-03 20:54 33.63825 -84.43460 1034 ft 7 kts 180°
2026-05-03 20:55 33.63794 -84.43460 1034 ft 0 kts 180°
2026-05-03 20:55 33.63793 -84.43460 1034 ft 0 kts 180°
2026-05-03 20:56 33.63776 -84.43461 1034 ft 5 kts 180°
2026-05-03 20:57 33.63771 -84.43461 1034 ft 0 kts 179°
2026-05-03 21:00 33.63767 -84.43461 1034 ft 2 kts 180°
2026-05-03 21:00 33.63752 -84.43461 1034 ft 5 kts 180°
2026-05-03 21:00 33.63740 -84.43461 1034 ft 0 kts 180°
2026-05-03 21:02 33.63722 -84.43461 1034 ft 7 kts 180°
2026-05-03 21:02 33.63669 -84.43417 1034 ft 12 kts 109°
2026-05-03 21:02 33.63665 -84.43304 1034 ft 15 kts 90°
2026-05-03 21:02 33.63665 -84.43154 1034 ft 21 kts 90°
2026-05-03 21:03 33.63665 -84.42982 1034 ft 20 kts 90°
2026-05-03 21:03 33.63665 -84.42814 1034 ft 20 kts 90°
2026-05-03 21:03 33.63656 -84.42653 1035 ft 19 kts 90°
2026-05-03 21:03 33.63656 -84.42495 1035 ft 19 kts 90°
2026-05-03 21:04 33.63657 -84.42342 1035 ft 19 kts 90°
2026-05-03 21:04 33.63657 -84.42167 1035 ft 23 kts 90°
2026-05-03 21:04 33.63656 -84.41972 1034 ft 23 kts 90°
2026-05-03 21:04 33.63656 -84.41783 1034 ft 22 kts 90°
2026-05-03 21:05 33.63656 -84.41599 1034 ft 22 kts 90°
2026-05-03 21:05 33.63656 -84.41422 1034 ft 21 kts 90°
2026-05-03 21:05 33.63656 -84.41262 1034 ft 15 kts 90°
2026-05-03 21:05 33.63656 -84.41178 1034 ft 1 kts 90°
2026-05-03 21:07 33.63656 -84.41174 1034 ft 2 kts 90°
2026-05-03 21:08 33.63656 -84.41140 1034 ft 5 kts 90°
2026-05-03 21:08 33.63656 -84.41112 1034 ft 2 kts 90°
2026-05-03 21:08 33.63656 -84.41097 1034 ft 2 kts 90°
2026-05-03 21:08 33.63656 -84.41075 1034 ft 2 kts 90°
2026-05-03 21:09 33.63656 -84.41074 1034 ft 0 kts 90°
2026-05-03 21:10 33.63656 -84.41066 1034 ft 4 kts 90°
2026-05-03 21:11 33.63656 -84.41010 1034 ft 8 kts 89°
2026-05-03 21:11 33.63656 -84.41003 1034 ft 0 kts 89°
2026-05-03 21:11 33.63656 -84.41002 1034 ft 0 kts 89°
2026-05-03 21:12 33.63656 -84.40999 1034 ft 1 kts 89°
2026-05-03 21:12 33.63656 -84.40994 1034 ft 0 kts 90°
2026-05-03 21:13 33.63656 -84.40989 1034 ft 2 kts 90°
2026-05-03 21:14 33.63653 -84.40946 1034 ft 6 kts 104°
2026-05-03 21:14 33.63650 -84.40938 1034 ft 0 kts 115°
2026-05-03 21:16 33.63641 -84.40926 1034 ft 3 kts 138°
2026-05-03 21:16 33.63623 -84.40917 1034 ft 0 kts 167°
2026-05-03 21:17 33.63622 -84.40916 1034 ft 1 kts 168°
2026-05-03 21:17 33.63588 -84.40913 1034 ft 6 kts 179°
2026-05-03 21:17 33.63573 -84.40913 1034 ft 0 kts 180°
2026-05-03 21:18 33.63570 -84.40913 1034 ft 2 kts 180°
2026-05-03 21:18 33.63523 -84.40913 1035 ft 10 kts 180°
2026-05-03 21:19 33.63484 -84.40922 1035 ft 3 kts 219°
2026-05-03 21:19 33.63472 -84.40948 1035 ft 5 kts 256°
2026-05-03 21:19 33.63471 -84.40968 1035 ft 0 kts 271°
2026-05-03 21:20 33.63471 -84.40977 1035 ft 9 kts 271°
2026-05-03 21:21 33.63471 -84.41339 1034 ft 77 kts 270°
2026-05-03 21:21 33.63471 -84.42227 1035 ft 133 kts 270°
2026-05-03 21:21 33.63457 -84.43483 1255 ft 157 kts 268°
2026-05-03 21:21 33.63434 -84.44366 1637 ft 164 kts 269°
2026-05-03 21:22 33.63407 -84.45785 2213 ft 171 kts 271°
2026-05-03 21:22 33.63417 -84.47712 3030 ft 183 kts 272°
2026-05-03 21:22 33.63426 -84.49349 3236 ft 208 kts 272°
2026-05-03 21:22 33.63441 -84.51191 3506 ft 229 kts 271°
2026-05-03 21:23 33.63445 -84.52527 3645 ft 247 kts 271°
2026-05-03 21:23 33.63448 -84.54652 4110 ft 259 kts 271°
2026-05-03 21:23 33.63449 -84.56800 5080 ft 256 kts 271°
2026-05-03 21:23 33.63448 -84.58961 5857 ft 262 kts 271°
2026-05-03 21:24 33.63445 -84.61151 6708 ft 263 kts 271°
2026-05-03 21:24 33.63431 -84.63364 7448 ft 269 kts 267°
2026-05-03 21:24 33.62869 -84.65506 8233 ft 275 kts 238°
2026-05-03 21:24 33.61529 -84.67146 9022 ft 283 kts 216°
2026-05-03 21:25 33.59843 -84.68357 9777 ft 288 kts 212°
2026-05-03 21:25 33.58023 -84.69409 10486 ft 296 kts 196°
2026-05-03 21:25 33.55952 -84.69509 11225 ft 302 kts 175°
2026-05-03 21:25 33.53865 -84.69119 11952 ft 306 kts 173°
2026-05-03 21:26 33.51757 -84.68677 12666 ft 309 kts 173°
2026-05-03 21:26 33.49628 -84.68242 13388 ft 312 kts 173°
2026-05-03 21:26 33.47475 -84.67822 14099 ft 314 kts 174°
2026-05-03 21:26 33.45338 -84.67415 14739 ft 316 kts 174°
2026-05-03 21:27 33.43153 -84.66972 15368 ft 321 kts 168°
2026-05-03 21:27 33.41122 -84.65797 15875 ft 335 kts 144°
2026-05-03 21:27 33.39330 -84.63871 16041 ft 356 kts 137°
2026-05-03 21:27 33.37525 -84.61716 16166 ft 376 kts 136°
2026-05-03 21:28 33.35653 -84.59433 16380 ft 391 kts 136°
2026-05-03 21:28 33.33731 -84.57094 16857 ft 397 kts 136°
2026-05-03 21:28 33.31779 -84.54739 17490 ft 399 kts 137°
2026-05-03 21:28 33.29811 -84.52388 18115 ft 401 kts 137°
2026-05-03 21:29 33.27824 -84.50030 18633 ft 405 kts 137°
2026-05-03 21:29 33.25812 -84.47655 19134 ft 408 kts 137°
2026-05-03 21:29 33.23780 -84.45264 19664 ft 411 kts 137°
2026-05-03 21:29 33.21734 -84.42859 20183 ft 414 kts 138°
2026-05-03 21:30 33.19675 -84.40443 20695 ft 417 kts 138°
2026-05-03 21:30 33.17600 -84.38007 21219 ft 420 kts 138°
2026-05-03 21:30 33.15510 -84.35556 21733 ft 422 kts 138°
2026-05-03 21:30 33.13407 -84.33091 22217 ft 426 kts 138°
2026-05-03 21:31 33.11311 -84.30637 22686 ft 429 kts 138°
2026-05-03 21:31 33.09176 -84.28138 23168 ft 432 kts 138°
2026-05-03 21:31 33.07024 -84.25621 23643 ft 435 kts 138°
2026-05-03 21:31 33.04854 -84.23086 24037 ft 438 kts 139°
2026-05-03 21:32 33.02665 -84.20529 24443 ft 441 kts 139°
2026-05-03 21:32 33.00429 -84.18015 24814 ft 441 kts 146°
2026-05-03 21:32 32.97797 -84.16248 25152 ft 433 kts 165°
2026-05-03 21:32 32.94955 -84.15092 25625 ft 431 kts 166°
2026-05-03 21:33 32.92096 -84.13953 26025 ft 434 kts 167°
2026-05-03 21:33 32.89226 -84.12807 26372 ft 437 kts 167°
2026-05-03 21:33 32.86335 -84.11642 26762 ft 439 kts 167°
2026-05-03 21:33 32.83438 -84.10464 27129 ft 442 kts 167°
2026-05-03 21:34 32.80521 -84.09271 27506 ft 444 kts 167°
2026-05-03 21:34 32.77600 -84.08070 27994 ft 444 kts 167°
2026-05-03 21:34 32.74725 -84.06886 28519 ft 441 kts 168°
2026-05-03 21:34 32.71836 -84.05696 29109 ft 438 kts 168°
2026-05-03 21:35 32.68965 -84.04513 29663 ft 436 kts 168°
2026-05-03 21:35 32.66099 -84.03336 30149 ft 436 kts 169°
2026-05-03 21:35 32.63243 -84.02166 30559 ft 434 kts 169°
2026-05-03 21:35 32.60388 -84.01002 31002 ft 433 kts 169°
2026-05-03 21:36 32.57536 -83.99838 31106 ft 435 kts 169°
2026-05-03 21:36 32.54692 -83.98671 31126 ft 431 kts 169°
2026-05-03 21:36 32.49021 -83.96354 31128 ft 430 kts 169°
2026-05-03 21:37 32.43371 -83.94052 31127 ft 430 kts 169°
2026-05-03 21:37 32.37715 -83.91750 31135 ft 430 kts 170°
2026-05-03 21:38 32.32044 -83.89571 31112 ft 427 kts 172°
2026-05-03 21:38 32.26356 -83.87568 31133 ft 426 kts 172°
2026-05-03 21:39 32.20694 -83.85575 31137 ft 427 kts 172°
2026-05-03 21:39 32.15004 -83.83548 31124 ft 427 kts 173°
2026-05-03 21:40 32.09313 -83.81519 31128 ft 426 kts 173°
2026-05-03 21:40 32.03644 -83.79496 31129 ft 426 kts 173°
2026-05-03 21:41 31.97959 -83.77472 31132 ft 426 kts 173°
2026-05-03 21:41 31.92271 -83.75446 31126 ft 427 kts 173°
2026-05-03 21:42 31.86614 -83.73215 31115 ft 437 kts 163°
2026-05-03 21:42 31.83948 -83.71394 31132 ft 449 kts 153°
2026-05-03 21:42 31.81549 -83.69036 31138 ft 462 kts 143°
2026-05-03 21:43 31.77399 -83.63113 31122 ft 473 kts 135°
2026-05-03 21:43 31.73484 -83.56893 31120 ft 473 kts 134°
2026-05-03 21:44 31.69608 -83.50654 31116 ft 473 kts 134°
2026-05-03 21:44 31.65706 -83.44457 31115 ft 468 kts 138°
2026-05-03 21:45 31.61402 -83.38795 31099 ft 462 kts 142°
2026-05-03 21:45 31.56999 -83.33318 31114 ft 461 kts 142°
2026-05-03 21:46 31.52637 -83.27787 31125 ft 462 kts 141°
2026-05-03 21:46 31.48340 -83.22244 31123 ft 463 kts 141°
2026-05-03 21:47 31.44025 -83.16646 31125 ft 463 kts 141°
2026-05-03 21:47 31.39702 -83.11047 31125 ft 463 kts 141°
2026-05-03 21:48 31.35381 -83.05461 31126 ft 464 kts 141°
2026-05-03 21:48 31.31043 -82.99866 31124 ft 465 kts 141°
2026-05-03 21:49 31.26695 -82.94269 31122 ft 465 kts 141°
2026-05-03 21:49 31.22345 -82.88668 31119 ft 465 kts 141°
2026-05-03 21:50 31.18016 -82.83107 31123 ft 466 kts 141°
2026-05-03 21:50 31.13660 -82.77513 31091 ft 465 kts 141°
2026-05-03 21:51 31.09302 -82.71945 31112 ft 464 kts 141°
2026-05-03 21:51 31.04952 -82.66388 31117 ft 463 kts 141°
2026-05-03 21:52 31.00619 -82.60852 31127 ft 461 kts 141°
2026-05-03 21:52 30.96319 -82.55329 31151 ft 460 kts 142°
2026-05-03 21:53 30.92215 -82.50127 31197 ft 461 kts 142°
2026-05-03 21:53 30.87872 -82.44627 31190 ft 462 kts 142°
2026-05-03 21:54 30.83525 -82.39112 31211 ft 462 kts 142°
2026-05-03 21:54 30.79181 -82.33577 31220 ft 462 kts 142°
2026-05-03 21:55 30.74837 -82.28080 31221 ft 462 kts 142°
2026-05-03 21:55 30.70490 -82.22604 31223 ft 461 kts 142°
2026-05-03 21:56 30.66143 -82.17128 31223 ft 461 kts 142°
2026-05-03 21:56 30.61799 -82.11652 31228 ft 461 kts 142°
2026-05-03 21:57 30.57464 -82.06208 31213 ft 462 kts 142°
2026-05-03 21:57 30.53108 -82.00727 31176 ft 462 kts 142°
2026-05-03 21:58 30.48753 -81.95256 31152 ft 461 kts 142°
2026-05-03 21:58 30.44496 -81.89921 31126 ft 461 kts 142°
2026-05-03 21:59 30.40134 -81.84463 31122 ft 462 kts 142°
2026-05-03 21:59 30.35767 -81.79007 31120 ft 462 kts 142°
2026-05-03 22:00 30.31423 -81.73587 31128 ft 462 kts 142°
2026-05-03 22:00 30.27058 -81.68148 31130 ft 461 kts 142°
2026-05-03 22:01 30.22675 -81.62698 31133 ft 465 kts 142°
2026-05-03 22:01 30.20455 -81.59945 31300 ft 470 kts 142°
2026-05-03 22:01 30.18223 -81.57175 31644 ft 470 kts 142°
2026-05-03 22:02 30.16001 -81.54413 32045 ft 469 kts 143°
2026-05-03 22:02 30.13774 -81.51648 32109 ft 472 kts 143°
2026-05-03 22:02 30.09755 -81.46667 32117 ft 471 kts 143°
2026-05-03 22:03 30.05325 -81.41184 32125 ft 469 kts 143°
2026-05-03 22:03 30.01370 -81.36296 32129 ft 469 kts 143°
2026-05-03 22:04 29.96948 -81.30840 32131 ft 468 kts 143°
2026-05-03 22:04 29.92593 -81.25474 32116 ft 468 kts 143°
2026-05-03 22:05 29.88148 -81.20007 32127 ft 468 kts 143°
2026-05-03 22:05 29.83693 -81.14530 32125 ft 468 kts 143°
2026-05-03 22:06 29.81328 -81.12028 32066 ft 450 kts 158°
2026-05-03 22:06 29.78622 -81.10498 32157 ft 427 kts 169°
2026-05-03 22:06 29.73106 -81.07896 32125 ft 429 kts 168°
2026-05-03 22:07 29.67601 -81.05246 32106 ft 429 kts 168°
2026-05-03 22:07 29.62135 -81.02578 32110 ft 430 kts 168°
2026-05-03 22:08 29.56632 -80.99886 32111 ft 429 kts 168°
2026-05-03 22:08 29.51135 -80.97199 32063 ft 429 kts 168°
2026-05-03 22:09 29.45651 -80.94522 32096 ft 428 kts 168°
2026-05-03 22:10 29.37440 -80.90522 32085 ft 427 kts 168°
2026-05-03 22:10 29.31993 -80.87874 32099 ft 426 kts 168°
2026-05-03 22:11 29.26538 -80.85225 32111 ft 425 kts 168°
2026-05-03 22:11 29.21098 -80.82585 32067 ft 425 kts 168°
2026-05-03 22:12 29.15665 -80.79952 32086 ft 424 kts 168°
2026-05-03 22:12 29.10255 -80.77335 32099 ft 425 kts 168°
2026-05-03 22:13 29.04811 -80.74704 32090 ft 425 kts 168°
2026-05-03 22:13 29.00253 -80.72503 32093 ft 425 kts 168°
2026-05-03 22:14 28.94833 -80.69915 32089 ft 424 kts 169°
2026-05-03 22:14 28.89351 -80.67454 32087 ft 422 kts 170°
2026-05-03 22:15 28.83870 -80.65028 32083 ft 423 kts 170°
2026-05-03 22:15 28.78386 -80.62591 32072 ft 423 kts 170°
2026-05-03 22:16 28.72896 -80.60145 32067 ft 424 kts 170°
2026-05-03 22:16 28.67393 -80.57691 32050 ft 425 kts 170°
2026-05-03 22:17 28.61884 -80.55238 32012 ft 425 kts 170°
2026-05-03 22:17 28.56389 -80.52792 32017 ft 424 kts 170°
2026-05-03 22:18 28.51113 -80.50448 32030 ft 424 kts 170°
2026-05-03 22:18 28.45618 -80.48010 32033 ft 424 kts 170°
2026-05-03 22:19 28.40145 -80.45584 32039 ft 425 kts 170°
2026-05-03 22:19 28.34628 -80.43141 32032 ft 425 kts 170°
2026-05-03 22:20 28.29120 -80.40705 32042 ft 424 kts 170°
2026-05-03 22:20 28.23616 -80.38274 32040 ft 425 kts 170°
2026-05-03 22:21 28.18105 -80.35843 32050 ft 425 kts 170°
2026-05-03 22:21 28.12624 -80.33428 32051 ft 425 kts 170°
2026-05-03 22:22 28.07097 -80.31045 32057 ft 423 kts 172°
2026-05-03 22:22 28.01537 -80.28876 32016 ft 422 kts 172°
2026-05-03 22:23 27.95981 -80.26742 32047 ft 423 kts 172°
2026-05-03 22:23 27.90408 -80.24582 32062 ft 424 kts 172°
2026-05-03 22:24 27.84824 -80.22407 32066 ft 425 kts 172°
2026-05-03 22:24 27.79231 -80.20227 32059 ft 426 kts 172°
2026-05-03 22:25 27.73617 -80.18043 32063 ft 426 kts 172°
2026-05-03 22:25 27.68044 -80.15881 32034 ft 426 kts 171°
2026-05-03 22:26 27.62419 -80.13699 31608 ft 434 kts 171°
2026-05-03 22:26 27.59552 -80.12560 31044 ft 436 kts 169°
2026-05-03 22:26 27.56697 -80.11379 30330 ft 438 kts 169°
2026-05-03 22:26 27.53844 -80.10185 29546 ft 438 kts 168°
2026-05-03 22:27 27.50993 -80.08994 28954 ft 434 kts 168°
2026-05-03 22:27 27.48181 -80.07826 28381 ft 429 kts 168°
2026-05-03 22:27 27.45387 -80.06675 27836 ft 424 kts 169°
2026-05-03 22:27 27.42667 -80.05558 27308 ft 420 kts 169°
2026-05-03 22:28 27.39904 -80.04422 26783 ft 416 kts 168°
2026-05-03 22:28 27.37226 -80.03372 26263 ft 409 kts 172°
2026-05-03 22:28 27.34509 -80.02520 25756 ft 403 kts 174°
2026-05-03 22:28 27.31805 -80.01748 25247 ft 400 kts 174°
2026-05-03 22:29 27.29120 -80.00964 24724 ft 398 kts 173°
2026-05-03 22:29 27.26445 -80.00158 24208 ft 397 kts 173°
2026-05-03 22:29 27.23793 -79.99311 23726 ft 396 kts 171°
2026-05-03 22:29 27.21171 -79.98363 23179 ft 395 kts 170°
2026-05-03 22:30 27.18577 -79.97392 22678 ft 391 kts 169°
2026-05-03 22:30 27.16003 -79.96433 22197 ft 387 kts 170°
2026-05-03 22:30 27.13451 -79.95499 21734 ft 383 kts 170°
2026-05-03 22:30 27.10926 -79.94586 21254 ft 380 kts 169°
2026-05-03 22:31 27.08420 -79.93683 20807 ft 376 kts 169°
2026-05-03 22:31 27.05937 -79.92782 20373 ft 374 kts 168°
2026-05-03 22:31 27.03480 -79.91814 19935 ft 373 kts 167°
2026-05-03 22:31 27.01046 -79.90814 19502 ft 373 kts 166°
2026-05-03 22:32 26.98603 -79.89808 19043 ft 374 kts 166°
2026-05-03 22:32 26.96156 -79.88806 18592 ft 375 kts 166°
2026-05-03 22:32 26.93704 -79.87810 18103 ft 375 kts 166°
2026-05-03 22:32 26.91279 -79.86829 17631 ft 374 kts 166°
2026-05-03 22:33 26.88830 -79.85842 17172 ft 373 kts 166°
2026-05-03 22:33 26.86397 -79.84864 16726 ft 371 kts 166°
2026-05-03 22:33 26.83980 -79.83892 16271 ft 367 kts 166°
2026-05-03 22:33 26.81580 -79.82924 15832 ft 364 kts 166°
2026-05-03 22:34 26.79227 -79.81978 15372 ft 354 kts 166°
2026-05-03 22:34 26.76938 -79.81056 14961 ft 345 kts 166°
2026-05-03 22:34 26.74679 -79.80150 14574 ft 344 kts 165°
2026-05-03 22:34 26.72433 -79.79247 14177 ft 342 kts 165°
2026-05-03 22:35 26.70147 -79.78705 13725 ft 331 kts 185°
2026-05-03 22:35 26.67922 -79.79076 13332 ft 319 kts 201°
2026-05-03 22:35 26.65843 -79.79890 12952 ft 314 kts 204°
2026-05-03 22:35 26.63808 -79.80753 12561 ft 312 kts 205°
2026-05-03 22:36 26.61787 -79.81612 12183 ft 309 kts 204°
2026-05-03 22:36 26.59803 -79.82437 11819 ft 307 kts 204°
2026-05-03 22:36 26.57800 -79.83258 11452 ft 306 kts 204°
2026-05-03 22:36 26.55811 -79.84070 11086 ft 303 kts 204°
2026-05-03 22:37 26.53833 -79.84934 10750 ft 300 kts 206°
2026-05-03 22:37 26.51938 -79.85819 10426 ft 298 kts 206°
2026-05-03 22:37 26.50049 -79.86718 10080 ft 291 kts 206°
2026-05-03 22:37 26.48232 -79.87585 9972 ft 275 kts 207°
2026-05-03 22:38 26.46494 -79.88412 9486 ft 273 kts 206°
2026-05-03 22:38 26.44780 -79.89225 9136 ft 265 kts 206°
2026-05-03 22:38 26.43124 -79.90006 8854 ft 261 kts 206°
2026-05-03 22:38 26.41445 -79.90796 8564 ft 263 kts 206°
2026-05-03 22:39 26.39747 -79.91593 8272 ft 266 kts 206°
2026-05-03 22:39 26.38043 -79.92406 8063 ft 264 kts 209°
2026-05-03 22:39 26.36450 -79.93375 8023 ft 257 kts 213°
2026-05-03 22:39 26.34938 -79.94377 7941 ft 250 kts 214°
2026-05-03 22:40 26.33448 -79.95365 8021 ft 255 kts 213°
2026-05-03 22:40 26.31860 -79.96407 8036 ft 271 kts 213°
2026-05-03 22:40 26.30213 -79.97472 8020 ft 276 kts 212°
2026-05-03 22:40 26.28553 -79.98538 8007 ft 274 kts 212°
2026-05-03 22:41 26.27113 -79.99460 8015 ft 270 kts 213°
2026-05-03 22:41 26.25511 -80.00488 7995 ft 259 kts 213°
2026-05-03 22:41 26.23983 -80.01468 8001 ft 248 kts 213°
2026-05-03 22:41 26.22524 -80.02410 7979 ft 238 kts 213°
2026-05-03 22:42 26.21122 -80.03309 7982 ft 228 kts 213°
2026-05-03 22:42 26.19758 -80.04182 7999 ft 226 kts 213°
2026-05-03 22:42 26.18458 -80.05134 7986 ft 222 kts 229°
2026-05-03 22:42 26.17639 -80.06537 8017 ft 217 kts 246°
2026-05-03 22:43 26.17144 -80.08120 8024 ft 216 kts 252°
2026-05-03 22:43 26.16684 -80.09707 8003 ft 216 kts 252°
2026-05-03 22:43 26.16213 -80.11296 8013 ft 217 kts 251°
2026-05-03 22:43 26.15737 -80.12890 8005 ft 218 kts 251°
2026-05-03 22:44 26.15255 -80.14493 7997 ft 219 kts 252°
2026-05-03 22:44 26.14961 -80.16150 7999 ft 220 kts 268°
2026-05-03 22:44 26.14986 -80.17838 8017 ft 223 kts 269°
2026-05-03 22:44 26.15008 -80.19574 8019 ft 226 kts 269°
2026-05-03 22:45 26.15026 -80.21340 8004 ft 228 kts 269°
2026-05-03 22:45 26.15034 -80.23091 7974 ft 225 kts 269°
2026-05-03 22:45 26.15047 -80.24804 7990 ft 218 kts 269°
2026-05-03 22:45 26.15059 -80.26485 7993 ft 217 kts 268°
2026-05-03 22:46 26.15068 -80.28169 7999 ft 218 kts 268°
2026-05-03 22:46 26.15075 -80.29855 8010 ft 218 kts 268°
2026-05-03 22:46 26.15081 -80.31372 8005 ft 219 kts 268°
2026-05-03 22:46 26.15087 -80.33084 8007 ft 219 kts 268°
2026-05-03 22:47 26.15092 -80.34787 8011 ft 220 kts 268°
2026-05-03 22:47 26.15043 -80.36493 8010 ft 221 kts 266°
2026-05-03 22:47 26.14973 -80.38202 8011 ft 222 kts 266°
2026-05-03 22:47 26.14901 -80.39921 8017 ft 223 kts 266°
2026-05-03 22:48 26.14820 -80.41642 8005 ft 223 kts 265°
2026-05-03 22:48 26.14735 -80.43361 7983 ft 220 kts 265°
2026-05-03 22:48 26.14650 -80.45046 7778 ft 218 kts 265°
2026-05-03 22:48 26.14563 -80.46628 7495 ft 219 kts 265°
2026-05-03 22:49 26.14487 -80.48321 7205 ft 219 kts 265°
2026-05-03 22:49 26.14417 -80.50009 6946 ft 218 kts 266°
2026-05-03 22:49 26.14343 -80.51670 6671 ft 217 kts 265°
2026-05-03 22:49 26.14263 -80.53349 6380 ft 217 kts 265°
2026-05-03 22:50 26.14193 -80.55032 6042 ft 220 kts 266°
2026-05-03 22:50 26.14145 -80.56737 5764 ft 220 kts 266°
2026-05-03 22:50 26.14090 -80.58432 5480 ft 219 kts 266°
2026-05-03 22:50 26.14039 -80.60123 5210 ft 218 kts 266°
2026-05-03 22:51 26.13964 -80.61810 5074 ft 219 kts 265°
2026-05-03 22:51 26.13906 -80.63522 5047 ft 222 kts 267°
2026-05-03 22:51 26.13854 -80.65234 5021 ft 220 kts 265°
2026-05-03 22:51 26.13798 -80.66924 5011 ft 218 kts 266°
2026-05-03 22:52 26.13749 -80.68601 5011 ft 217 kts 267°
2026-05-03 22:52 26.13718 -80.70286 5024 ft 219 kts 267°
2026-05-03 22:52 26.13659 -80.71983 5026 ft 220 kts 266°
2026-05-03 22:52 26.13452 -80.73670 5004 ft 221 kts 245°
2026-05-03 22:53 26.12417 -80.74878 5035 ft 221 kts 204°
2026-05-03 22:53 26.10888 -80.74993 5046 ft 233 kts 156°
2026-05-03 22:53 26.09458 -80.74078 5072 ft 242 kts 153°
2026-05-03 22:53 26.08034 -80.73013 5004 ft 259 kts 137°
2026-05-03 22:54 26.07238 -80.71232 4977 ft 255 kts 102°
2026-05-03 22:54 26.07077 -80.69328 4990 ft 243 kts 89°
2026-05-03 22:54 26.07156 -80.67449 5018 ft 243 kts 87°
2026-05-03 22:54 26.07263 -80.65573 5011 ft 242 kts 87°
2026-05-03 22:55 26.07367 -80.63709 5011 ft 240 kts 87°
2026-05-03 22:55 26.07460 -80.61853 5011 ft 240 kts 88°
2026-05-03 22:55 26.07544 -80.60001 5013 ft 240 kts 88°
2026-05-03 22:55 26.07622 -80.58175 5015 ft 239 kts 88°
2026-05-03 22:56 26.07721 -80.56331 5011 ft 239 kts 85°
2026-05-03 22:56 26.07863 -80.54496 5021 ft 239 kts 88°
2026-05-03 22:56 26.07928 -80.52643 5006 ft 240 kts 89°
2026-05-03 22:56 26.07940 -80.50789 5017 ft 240 kts 91°
2026-05-03 22:57 26.07930 -80.48956 5021 ft 241 kts 91°
2026-05-03 22:57 26.07915 -80.47092 5021 ft 242 kts 91°
2026-05-03 22:57 26.07897 -80.45205 4884 ft 248 kts 91°
2026-05-03 22:57 26.07882 -80.43275 4589 ft 248 kts 91°
2026-05-03 22:58 26.07868 -80.41363 4263 ft 246 kts 91°
2026-05-03 22:58 26.07851 -80.39483 3939 ft 241 kts 91°
2026-05-03 22:58 26.07839 -80.37644 3623 ft 235 kts 90°
2026-05-03 22:58 26.07826 -80.35860 3325 ft 228 kts 90°
2026-05-03 22:59 26.07813 -80.34116 3026 ft 223 kts 90°
2026-05-03 22:59 26.07800 -80.32424 2744 ft 217 kts 90°
2026-05-03 22:59 26.07789 -80.30796 2468 ft 210 kts 90°
2026-05-03 22:59 26.07778 -80.29237 2208 ft 204 kts 89°
2026-05-03 23:00 26.07766 -80.27657 1936 ft 197 kts 88°
2026-05-03 23:00 26.07756 -80.26200 1695 ft 189 kts 88°
2026-05-03 23:00 26.07746 -80.24746 1446 ft 185 kts 89°
2026-05-03 23:00 26.07737 -80.23363 1205 ft 172 kts 89°
2026-05-03 23:01 26.07732 -80.22490 1051 ft 161 kts 88°
2026-05-03 23:01 26.07722 -80.20862 802 ft 164 kts 86°
2026-05-03 23:01 26.07714 -80.19633 576 ft 155 kts 88°
2026-05-03 23:01 26.07707 -80.18825 467 ft 155 kts 86°
2026-05-03 23:02 26.07692 -80.17623 234 ft 154 kts 85°
2026-05-03 23:02 26.07702 -80.16420 59 ft 158 kts 89°
2026-05-03 23:02 26.07688 -80.15280 15 ft 128 kts 91°
2026-05-03 23:02 26.07682 -80.14522 19 ft 68 kts 90°
2026-05-03 23:03 26.07680 -80.14267 19 ft 15 kts 103°
2026-05-03 23:03 26.07598 -80.14231 18 ft 9 kts 179°
2026-05-03 23:03 26.07591 -80.14231 17 ft 0 kts 180°
2026-05-03 23:05 26.07589 -80.14231 17 ft 1 kts 180°
2026-05-03 23:05 26.07567 -80.14218 16 ft 7 kts 131°
2026-05-03 23:05 26.07557 -80.14151 16 ft 10 kts 91°
2026-05-03 23:05 26.07556 -80.14060 15 ft 14 kts 90°
2026-05-03 23:06 26.07525 -80.13993 15 ft 7 kts 167°
2026-05-03 23:06 26.07486 -80.14021 15 ft 7 kts 250°
2026-05-03 23:06 26.07485 -80.14038 15 ft 0 kts 269°
2026-05-03 23:09 26.07485 -80.14046 15 ft 3 kts 269°
2026-05-03 23:09 26.07477 -80.14104 17 ft 11 kts 258°
2026-05-03 23:10 26.07485 -80.14194 15 ft 12 kts 272°
2026-05-03 23:10 26.07487 -80.14291 15 ft 13 kts 270°
2026-05-03 23:10 26.07445 -80.14343 15 ft 10 kts 182°
2026-05-03 23:10 26.07390 -80.14343 15 ft 3 kts 179°
2026-05-03 23:11 26.07386 -80.14343 15 ft 0 kts 180°